| time (UTC) | temp F | wind direction | speed MPH | gust MPH | rain 1hr in | rain 24hr in | rain mn in | humidity % | barometer mb |
| 20260507093538 | 15 | 63 | 3.0 | 4.0 | 0.00 | 0.00 | 0.00 | 85 | 1021.5 |
| 20260507092521 | 12 | 182 | 5.0 | 8.0 | 0.00 | 0.00 | 0.00 | 87 | 1021.6 |
| 20260507091522 | 15 | 224 | 4.0 | 7.0 | 0.00 | 0.00 | 0.00 | 83 | 1021.5 |
| 20260507090522 | 15 | 159 | 3.0 | 5.0 | 0.00 | 0.00 | 0.00 | 86 | 1021.3 |
| 20260507085518 | 15 | 119 | 3.0 | 4.0 | 0.00 | 0.00 | 0.00 | 87 | 1021.3 |
| 20260507084519 | 13 | 129 | 3.0 | 4.0 | 0.00 | 0.00 | 0.00 | 88 | 1021.3 |
| 20260507083522 | 14 | 146 | 5.0 | 7.0 | 0.00 | 0.00 | 0.00 | 85 | 1021.3 |
| 20260507082516 | 16 | 129 | 3.0 | 5.0 | 0.00 | 0.00 | 0.00 | 85 | 1021.2 |
| 20260507081517 | 16 | 144 | 4.0 | 6.0 | 0.00 | 0.00 | 0.00 | 84 | 1021.2 |
| 20260507080519 | 16 | 144 | 3.0 | 3.0 | 0.00 | 0.00 | 0.00 | 86 | 1021.3 |
| 20260507075523 | 16 | 155 | 3.0 | 6.0 | 0.00 | 0.00 | 0.00 | 86 | 1021.4 |
| 20260507074544 | 15 | 145 | 5.0 | 6.0 | 0.00 | 0.00 | 0.00 | 87 | 1021.3 |
| 20260507073520 | 18 | 154 | 3.0 | 4.0 | 0.00 | 0.00 | 0.00 | 84 | 1021.5 |
| 20260507072520 | 17 | 113 | 1.0 | 2.0 | 0.00 | 0.00 | 0.00 | 86 | 1021.6 |
| 20260507071620 | 16 | 86 | 1.0 | 3.0 | 0.00 | 0.00 | 0.00 | 86 | 1021.4 |
| 20260507070521 | 17 | 221 | 1.0 | 2.0 | 0.00 | 0.00 | 0.00 | 87 | 1021.3 |
| 20260507065520 | 18 | 241 | 2.0 | 3.0 | 0.00 | 0.00 | 0.00 | 85 | 1021.2 |
| 20260507064521 | 18 | 226 | 3.0 | 4.0 | 0.00 | 0.00 | 0.00 | 85 | 1021.2 |
| 20260507063525 | 21 | 271 | 4.0 | 7.0 | 0.00 | 0.00 | 0.00 | 80 | 1021.0 |
| 20260507062541 | 21 | 114 | 3.0 | 5.0 | 0.00 | 0.00 | 0.00 | 84 | 1021.0 |
| 20260507061543 | 23 | 109 | 2.0 | 5.0 | 0.00 | 0.00 | 0.00 | 81 | 1020.9 |
| 20260507060519 | 22 | 132 | 4.0 | 6.0 | 0.00 | 0.00 | 0.00 | 81 | 1020.8 |
| 20260507055519 | 22 | 126 | 5.0 | 6.0 | 0.00 | 0.00 | 0.00 | 82 | 1020.7 |
| 20260507054519 | 20 | 141 | 6.0 | 8.0 | 0.00 | 0.00 | 0.00 | 85 | 1020.6 |
| 20260507053519 | 19 | 165 | 5.0 | 7.0 | 0.00 | 0.00 | 0.00 | 85 | 1020.7 |
| 20260507052520 | 18 | 189 | 4.0 | 7.0 | 0.00 | 0.00 | 0.00 | 87 | 1020.6 |
| 20260507051543 | 18 | 151 | 2.0 | 4.0 | 0.00 | 0.00 | 0.00 | 86 | 1020.5 |
| 20260507050600 | 20 | 191 | 6.0 | 8.0 | 0.00 | 0.00 | 0.00 | 85 | 1020.6 |
| 20260507045522 | 23 | 211 | 3.0 | 4.0 | 0.00 | 0.00 | 0.00 | 82 | 1020.7 |
| 20260507044520 | 23 | 136 | 6.0 | 8.0 | 0.00 | 0.00 | 0.00 | 83 | 1020.5 |
| 20260507043520 | 22 | 141 | 5.0 | 7.0 | 0.00 | 0.00 | 0.00 | 84 | 1020.5 |
| 20260507042540 | 21 | 129 | 5.0 | 7.0 | 0.00 | 0.00 | 0.00 | 86 | 1020.5 |
| 20260507041521 | 20 | 135 | 5.0 | 7.0 | 0.00 | 0.00 | 0.00 | 86 | 1020.4 |
| 20260507040521 | 19 | 147 | 5.0 | 6.0 | 0.00 | 0.00 | 0.00 | 86 | 1020.4 |
| 20260507035601 | 18 | 161 | 4.0 | 6.0 | 0.00 | 0.00 | 0.00 | 87 | 1020.5 |
| 20260507034521 | 17 | 172 | 5.0 | 7.0 | 0.00 | 0.00 | 0.00 | 88 | 1020.5 |
| 20260507033521 | 18 | 185 | 6.0 | 8.0 | 0.00 | 0.00 | 0.00 | 87 | 1020.4 |
| 20260507032521 | 18 | 166 | 5.0 | 6.0 | 0.00 | 0.00 | 0.00 | 88 | 1020.3 |
| 20260507031522 | 18 | 172 | 5.0 | 6.0 | 0.00 | 0.00 | 0.00 | 87 | 1020.2 |
| 20260507030522 | 19 | 181 | 4.0 | 5.0 | 0.00 | 0.00 | 0.00 | 87 | 1020.2 |
| 20260507025522 | 19 | 192 | 6.0 | 7.0 | 0.00 | 0.00 | 0.00 | 87 | 1020.1 |
| 20260507024516 | 21 | 214 | 3.0 | 5.0 | 0.00 | 0.00 | 0.00 | 87 | 1019.9 |
| 20260507023522 | 22 | 201 | 4.0 | 7.0 | 0.00 | 0.00 | 0.00 | 86 | 1019.8 |
| 20260507022523 | 22 | 132 | 6.0 | 8.0 | 0.00 | 0.00 | 0.00 | 86 | 1019.8 |
| 20260507021543 | 21 | 135 | 5.0 | 7.0 | 0.00 | 0.00 | 0.00 | 86 | 1019.7 |
| 20260507020526 | 22 | 164 | 3.0 | 4.0 | 0.00 | 0.00 | 0.00 | 85 | 1019.7 |
| 20260507015526 | 23 | 174 | 3.0 | 4.0 | 0.00 | 0.00 | 0.00 | 85 | 1019.6 |
| 20260507014523 | 24 | 177 | 5.0 | 7.0 | 0.00 | 0.00 | 0.00 | 84 | 1019.3 |
| 20260507013526 | 26 | 186 | 4.0 | 5.0 | 0.00 | 0.00 | 0.00 | 83 | 1019.4 |
| 20260507012526 | 27 | 160 | 4.0 | 5.0 | 0.00 | 0.00 | 0.00 | 80 | 1019.3 |
| 20260507011518 | 28 | 160 | 4.0 | 6.0 | 0.00 | 0.00 | 0.00 | 79 | 1019.3 |
| 20260507010527 | 28 | 164 | 3.0 | 4.0 | 0.00 | 0.00 | 0.00 | 80 | 1019.4 |
| 20260507005527 | 28 | 177 | 1.0 | 1.0 | 0.00 | 0.00 | 0.00 | 79 | 1019.2 |
| 20260507004527 | 30 | 214 | 2.0 | 3.0 | 0.00 | 0.00 | 0.00 | 75 | 1019.0 |
| 20260507003527 | 31 | 235 | 2.0 | 3.0 | 0.00 | 0.00 | 0.00 | 69 | 1018.9 |
| 20260507002518 | 30 | 244 | 3.0 | 5.0 | 0.00 | 0.00 | 0.00 | 73 | 1019.0 |
| 20260507001519 | 29 | 261 | 5.0 | 6.0 | 0.00 | 0.00 | 0.00 | 74 | 1018.9 |
| 20260507000519 | 30 | 262 | 4.0 | 6.0 | 0.00 | 0.00 | 0.00 | 76 | 1018.9 |
| 20260506235528 | 31 | 288 | 4.0 | 5.0 | 0.00 | 0.00 | 0.00 | 72 | 1018.9 |
| 20260506234519 | 30 | 297 | 4.0 | 5.0 | 0.00 | 0.00 | 0.00 | 75 | 1018.8 |
| 20260506233520 | 30 | 323 | 4.0 | 6.0 | 0.00 | 0.00 | 0.00 | 76 | 1018.6 |
| 20260506232520 | 31 | 341 | 4.0 | 6.0 | 0.00 | 0.00 | 0.00 | 75 | 1018.5 |
| 20260506231520 | 30 | 343 | 5.0 | 7.0 | 0.00 | 0.00 | 0.00 | 76 | 1018.4 |
| 20260506230520 | 31 | 320 | 4.0 | 6.0 | 0.00 | 0.00 | 0.00 | 75 | 1018.3 |
| 20260506225521 | 32 | 322 | 4.0 | 8.0 | 0.00 | 0.00 | 0.00 | 74 | 1018.1 |
| 20260506224520 | 32 | 331 | 4.0 | 7.0 | 0.00 | 0.02 | 0.00 | 72 | 1018.0 |
| 20260506223521 | 33 | 321 | 3.0 | 5.0 | 0.00 | 0.02 | 0.00 | 71 | 1018.0 |
| 20260506222530 | 34 | 323 | 2.0 | 4.0 | 0.00 | 0.02 | 0.00 | 67 | 1018.0 |
| 20260506221530 | 32 | 249 | 1.0 | 4.0 | 0.00 | 0.02 | 0.00 | 69 | 1018.1 |
| 20260506220530 | 33 | 306 | 2.0 | 3.0 | 0.00 | 0.02 | 0.00 | 71 | 1018.0 |
| 20260506215530 | 31 | 13 | 2.0 | 4.0 | 0.00 | 0.02 | 0.00 | 77 | 1018.1 |
| 20260506214531 | 31 | 349 | 2.0 | 4.0 | 0.00 | 0.03 | 0.00 | 80 | 1018.0 |
| 20260506213531 | 31 | 12 | 2.0 | 3.0 | 0.00 | 0.03 | 0.00 | 79 | 1017.9 |
| 20260506212531 | 30 | 345 | 2.0 | 3.0 | 0.00 | 0.03 | 0.00 | 84 | 1018.0 |
| 20260506211531 | 30 | 352 | 2.0 | 4.0 | 0.00 | 0.03 | 0.00 | 86 | 1018.1 |
| 20260506210551 | 29 | 359 | 3.0 | 4.0 | 0.00 | 0.03 | 0.00 | 88 | 1018.1 |
| 20260506205523 | 28 | 332 | 3.0 | 6.0 | 0.00 | 0.03 | 0.00 | 86 | 1018.3 |
| 20260506204523 | 29 | 329 | 4.0 | 6.0 | 0.00 | 0.03 | 0.00 | 88 | 1018.2 |
| 20260506203603 | 29 | 341 | 5.0 | 8.0 | 0.00 | 0.03 | 0.00 | 88 | 1018.1 |
| 20260506202517 | 30 | 339 | 5.0 | 7.0 | 0.00 | 0.03 | 0.00 | 88 | 1017.9 |
| 20260506201517 | 32 | 355 | 3.0 | 5.0 | 0.00 | 0.03 | 0.00 | 90 | 1017.7 |
| 20260506200538 | 31 | 332 | 4.0 | 6.0 | 0.00 | 0.03 | 0.00 | 89 | 1017.6 |
| 20260506195533 | 31 | 320 | 3.0 | 4.0 | 0.00 | 0.03 | 0.00 | 90 | 1017.5 |
| 20260506194533 | 31 | 278 | 2.0 | 4.0 | 0.00 | 0.03 | 0.00 | 93 | 1017.5 |
| 20260506193518 | 30 | 320 | 4.0 | 7.0 | 0.00 | 0.03 | 0.00 | 93 | 1017.7 |
| 20260506192518 | 29 | 320 | 5.0 | 7.0 | 0.00 | 0.03 | 0.00 | 94 | 1017.7 |
| 20260506191538 | 28 | 341 | 5.0 | 9.0 | 0.00 | 0.03 | 0.00 | 93 | 1017.8 |
| 20260506190518 | 26 | 350 | 9.0 | 12.0 | 0.00 | 0.03 | 0.00 | 93 | 1017.8 |
| 20260506185517 | 26 | 349 | 9.0 | 12.0 | 0.00 | 0.03 | 0.00 | 93 | 1017.8 |
| 20260506184517 | 26 | 346 | 8.0 | 13.0 | 0.00 | 0.03 | 0.00 | 93 | 1017.8 |
| 20260506183519 | 25 | 319 | 5.0 | 8.0 | 0.00 | 0.03 | 0.00 | 93 | 1017.6 |
| 20260506182520 | 25 | 329 | 3.0 | 5.0 | 0.00 | 0.03 | 0.00 | 93 | 1017.6 |
| 20260506181534 | 24 | 319 | 3.0 | 6.0 | 0.00 | 0.03 | 0.00 | 92 | 1017.6 |
| 20260506180538 | 24 | 354 | 4.0 | 8.0 | 0.00 | 0.03 | 0.00 | 92 | 1017.8 |
| 20260506175518 | 24 | 24 | 4.0 | 7.0 | 0.00 | 0.03 | 0.00 | 92 | 1017.8 |
| 20260506174517 | 24 | 44 | 8.0 | 11.0 | 0.00 | 0.03 | 0.00 | 92 | 1017.7 |
| 20260506173558 | 25 | 45 | 11.0 | 15.0 | 0.00 | 0.03 | 0.00 | 91 | 1017.4 |
| 20260506172517 | 27 | 348 | 8.0 | 12.0 | 0.00 | 0.03 | 0.00 | 92 | 1017.4 |
| 20260506171518 | 27 | 308 | 4.0 | 7.0 | 0.00 | 0.03 | 0.00 | 92 | 1017.2 |
| 20260506170519 | 27 | 285 | 3.0 | 4.0 | 0.00 | 0.03 | 0.00 | 92 | 1016.9 |
| 20260506165519 | 27 | 229 | 5.0 | 8.0 | 0.00 | 0.03 | 0.00 | 91 | 1016.3 |
| 20260506164518 | 27 | 217 | 8.0 | 11.0 | 0.00 | 0.03 | 0.00 | 91 | 1015.7 |
| 20260506163518 | 28 | 213 | 10.0 | 13.0 | 0.00 | 0.03 | 0.00 | 91 | 1015.3 |
| 20260506162518 | 28 | 204 | 10.0 | 13.0 | 0.00 | 0.03 | 0.00 | 91 | 1015.3 |
| 20260506161519 | 28 | 198 | 9.0 | 14.0 | 0.00 | 0.03 | 0.00 | 92 | 1015.2 |
| 20260506160518 | 28 | 205 | 9.0 | 11.0 | 0.00 | 0.03 | 0.00 | 92 | 1015.3 |
| 20260506155519 | 27 | 204 | 8.0 | 13.0 | 0.00 | 0.03 | 0.00 | 92 | 1015.3 |
| 20260506154539 | 27 | 196 | 9.0 | 12.0 | 0.00 | 0.03 | 0.00 | 92 | 1015.3 |
| 20260506153519 | 28 | 202 | 9.0 | 11.0 | 0.00 | 0.03 | 0.00 | 92 | 1015.2 |
| 20260506152519 | 27 | 195 | 8.0 | 11.0 | 0.00 | 0.03 | 0.00 | 92 | 1015.2 |
| 20260506151537 | 27 | 198 | 9.0 | 15.0 | 0.00 | 0.03 | 0.00 | 92 | 1015.1 |
| 20260506150521 | 26 | 196 | 8.0 | 9.0 | 0.00 | 0.03 | 0.00 | 92 | 1015.2 |
| 20260506145522 | 26 | 203 | 8.0 | 10.0 | 0.00 | 0.03 | 0.00 | 92 | 1015.3 |
| 20260506144521 | 26 | 196 | 7.0 | 9.0 | 0.00 | 0.03 | 0.00 | 92 | 1015.5 |
| 20260506143522 | 26 | 192 | 5.0 | 6.0 | 0.00 | 0.03 | 0.00 | 91 | 1015.7 |
| 20260506142522 | 25 | 144 | 5.0 | 5.0 | 0.00 | 0.03 | 0.00 | 91 | 1015.6 |
| 20260506094622 | 28 | 207 | 5.0 | 5.0 | 0.00 | 0.03 | 0.00 | 92 | 1013.5 |